OneWeb SL0544

operational
NORAD ID: 55144 Int'l Des: 2023-004 Owner: ONEWEBN Country: UK Constellation: oneweb
LEOCIRCULARPOLARONEWEB_TYPE

关于 OneWeb SL0544

正在加载描述...

实时位置

正在加载3D地球...

即将过境

高度历史

Altitude vs Time

uPlot chart will show altitude changes over time

两行轨道根数

1 55144U 23004E 25258.63602379 -.00000271 00000-0 -71979-3 0 9994
2 55144 87.9176 30.0181 0001525 101.0291 259.1013 13.18684909133512
Epoch: Sep 15, 2025 • Age: 10 hours

当前状态

高度 1218.2 km
速度 7.24 km/s
星下点 -75.25°S, 162.34°W
发射日期 Jan 10, 2023
运行时间 2.6 years
类型 internet

技术详情

分类 Payload
质量 148.00 kg
干质量 140.00 kg
总质量 148.00 kg
长度 1.30 m
直径 1.00 m
跨度 5.00 m
形状 Trapezoid+2 pan
制造商 ONEWUS
平台类型 ARROW
阶段状态 In Orbit
所有者/国家 ONEWEBN/UK

大型星座

Loading constellations...